• Join FlightAware (Why Join?)
  • Login
  • US Flag 
01:43PM EDT


 

Airport Tracker/Info


-or-


 

Live Flight TrackerFlight Track Log ✈ FLG3862 ✈ 24-Apr-2013 ✈ KBTV - KDTW

Flight Track Log - Related Links

Times and Time Zones

All times are in EDT time to prevent confusion due to time zone crossing. See the FLG3862 flight status page for this flight to view local times or setup timezone preferences in your user account.

Time Position Orientation Groundspeed Altitude Reporting Facility
EDT Latitude Longitude Course Direction KTS MPH feet Rate Location/Type
12:39PM 44.3364 -73.1367 186° South 216 249 5,600  Level Boston Center
12:40PM 44.3816 -73.6308 253° West  Level FlightAware Approximate
12:40PM 44.2839 -73.2028 222° Southwest 256 295 8,100  Level Boston Center
12:41PM 44.3595 -73.7507 259° West  Level FlightAware Approximate
12:41PM 44.2311 -73.2744 224° Southwest 261 300 10,500  Level Boston Center
12:42PM 44.3421 -73.8723 259° West  Level FlightAware Approximate
12:42PM 44.1703 -73.3372 217° Southwest 289 333 11,300  Level Boston Center
12:43PM 44.3224 -73.9931 256° West  Level FlightAware Approximate
12:43PM 44.0947 -73.3997 211° Southwest 314 361 12,900  Level Boston Center
12:44PM 44.3003 -74.1131 256° West  Level FlightAware Approximate
12:44PM 44.0131 -73.4678 211° Southwest 336 387 14,200  Level Boston Center
12:45PM 43.9331 -73.5383 212° Southwest 341 392 15,900 1,560 Climbing Boston Center
12:46PM 43.8533 -73.6061 212° Southwest 346 398 17,400 1,080 Climbing Boston Center
12:47PM 43.7975 -73.7403 240° Southwest 335 386 18,400 1,020 Climbing Boston Center
12:48PM 43.7814 -73.8750 261° West 341 392 19,700 1,080 Climbing Boston Center
12:49PM 43.7650 -74.0156 261° West 358 412 20,600 900 Climbing Boston Center
12:50PM 43.7486 -74.1503 260° West 364 419 21,600 900 Climbing Boston Center
12:51PM 43.7317 -74.2875 260° West 370 426 22,400 660 Climbing Boston Center
12:52PM 43.7067 -74.4219 256° West 370 426 23,000 600 Climbing Boston Center
12:53PM 43.6297 -74.5197 223° Southwest 357 411 23,700 660 Climbing Boston Center
12:54PM 43.5508 -74.6172 222° Southwest 369 425 24,400 660 Climbing Boston Center
12:55PM 43.4742 -74.7119 222° Southwest 374 430 25,100 720 Climbing Boston Center
12:56PM 43.4300 -74.8331 243° Southwest 374 430 25,900 660 Climbing Boston Center
12:57PM 43.4144 -74.9725 261° West 355 409 26,500 600 Climbing Boston Center
12:58PM 43.3883 -75.1058 255° West 365 420 27,200 720 Climbing Boston Center
12:59PM 43.3619 -75.2503 256° West 370 426 28,000 360 Climbing Boston Center
01:00PM 43.3289 -75.4031 253° West 382 440 28,000  Level Boston Center
01:01PM 43.3003 -75.5414 254° West 382 440 28,000  Level Boston Center
01:02PM 43.2714 -75.6853 255° West 382 440 28,000  Level Boston Center
01:03PM 43.2422 -75.8264 254° West 388 447 28,000  Level Boston Center
01:04PM 43.2128 -75.9700 254° West 393 452 28,000  Level Boston Center
01:05PM 43.1833 -76.1108 254° West 393 452 28,000 -60 Level Boston Center
01:06PM 43.1578 -76.2575 257° West 393 452 27,900  Descending Boston Center
01:08PM 43.1331 -76.5203 263° West 408 470 28,000  Climbing Cleveland Center
01:09PM 43.1214 -76.6692 264° West 408 470 28,000  Level Cleveland Center
01:10PM 43.1092 -76.8008 263° West 408 470 28,000  Level Cleveland Center
01:11PM 43.0950 -76.9494 263° West 403 464 28,000  Level Cleveland Center
01:12PM 43.0828 -77.0922 263° West 398 458 28,000  Level Cleveland Center
01:13PM 43.0683 -77.2381 262° West 393 452 28,000  Level Cleveland Center
01:14PM 43.0558 -77.3839 263° West 393 452 28,000  Level Cleveland Center
01:16PM 43.0361 -77.5695 262° West  Level FlightAware Approximate
01:16PM 43.0281 -77.6722 262° West 393 452 28,000  Level Cleveland Center
01:17PM 43.0128 -77.8175 262° West 393 452 28,000  Level Cleveland Center
01:18PM 42.9978 -77.9744 263° West 393 452 28,000  Level Cleveland Center
01:19PM 42.9842 -78.1142 262° West 388 447 28,000  Level Cleveland Center
01:20PM 42.9703 -78.2508 262° West 383 441 28,000  Level Cleveland Center
01:21PM 42.9564 -78.3903 262° West 378 435 28,000  Level Cleveland Center
01:22PM 42.9422 -78.5328 262° West 373 429 28,000  Level Cleveland Center
01:23PM 42.9258 -78.6722 261° West 373 429 28,000  Level Cleveland Center
01:24PM 42.9072 -78.8117 260° West 373 429 28,000  Level Cleveland Center
01:25PM 42.8883 -78.9481 259° West 373 429 28,000  Level Cleveland Center
01:26PM 42.8653 -79.0875 257° West 373 429 28,000  Level Cleveland Center
01:27PM 42.8442 -79.2269 258° West 373 429 28,000  Level Cleveland Center
01:28PM 42.8289 -79.3658 262° West 373 429 28,000  Level Cleveland Center
01:29PM 42.8075 -79.5022 258° West 373 429 28,000  Level Cleveland Center
01:30PM 42.7878 -79.6411 259° West 373 429 28,000  Level Cleveland Center
01:31PM 42.7639 -79.7744 256° West 373 429 28,000  Level Cleveland Center
01:32PM 42.7522 -79.9158 264° West 373 429 28,000  Level Cleveland Center
01:33PM 42.7403 -80.0575 263° West 373 429 28,000  Level Cleveland Center
01:34PM 42.7347 -80.2017 267° West 378 435 28,000  Level Cleveland Center
01:35PM 42.7308 -80.3458 268° West 383 441 28,000  Level Cleveland Center
01:36PM 42.7228 -80.4872 266° West 383 441 28,000  Level Cleveland Center
01:37PM 42.7186 -80.6283 268° West 383 441 28,000 -120 Level Cleveland Center
01:38PM 42.7103 -80.7697 265° West 383 441 27,800 -780 Descending Cleveland Center
01:39PM 42.7036 -80.9139 266° West 383 441 26,500 -1,260 Descending Cleveland Center
01:40PM 42.6886 -81.0519 262° West 381 438 25,300 -1,200 Descending Cleveland Center
01:41PM 42.6733 -81.1931 262° West 373 429 24,100 -660 Descending Cleveland Center
01:42PM 42.6578 -81.3258 261° West 366 421 24,000 -60 Descending Cleveland Center
01:43PM 42.6425 -81.4497 261° West 353 406 24,000  Level Cleveland Center
01:44PM 42.6247 -81.5792 259° West 348 400 24,000  Level Cleveland Center
01:45PM 42.6111 -81.6947 261° West 348 400 24,000 -480 Level Cleveland Center
01:46PM 42.5953 -81.8242 261° West 354 407 23,100 -1,500 Descending Cleveland Center
01:47PM 42.5814 -81.9481 261° West 349 402 21,000 -2,040 Descending Cleveland Center
01:48PM 42.5967 -82.0611 280° West 327 376 19,100 -2,100 Descending Cleveland Center
01:49PM 42.6536 -82.1725 305° West 325 374 16,900 -2,100 Descending Cleveland Center
01:50PM 42.6353 -82.2822 257° West 307 353 15,000 -1,800 Descending Cleveland Center
01:51PM 42.5922 -82.3742 238° Southwest 289 333 13,300 -1,500 Descending Cleveland Center
01:52PM 42.5447 -82.4686 236° Southwest 294 338 12,000 -660 Descending Cleveland Center
01:53PM 42.4994 -82.5686 238° Southwest 307 353 12,000  Level Cleveland Center
01:53PM 42.4881 -82.6106 250° West 310 357 12,000  Level Cleveland Center
01:54PM 42.4619 -82.6714 240° Southwest 312 359 12,000  Level Cleveland Center
01:55PM 42.4136 -82.8078 244° Southwest 306 352 12,000  Level Cleveland Center
01:56PM 42.3872 -82.8800 244° Southwest 307 353 12,000  Level Cleveland Center
01:57PM 42.3519 -82.9797 244° Southwest 307 353 12,000  Level Cleveland Center
01:58PM 42.3142 -83.0822 244° Southwest 307 353 12,100 60 Climbing Cleveland Center
01:58PM 42.3028 -83.1239 250° West 305 351 12,100  Level Cleveland Center
01:59PM 42.2889 -83.1908 254° West 302 348 12,100 -120 Level Cleveland Center
02:00PM 42.3022 -83.2503 287° West 306 352 12,000  Descending Cleveland Center
02:01PM 42.3269 -83.3411 290° West 233 268 12,100  Climbing Cleveland Center
02:02PM 42.3481 -83.4181 290° West 231 266 12,100  Level Cleveland Center
02:02PM 42.3114 -83.4669 225° Southwest 209 241 12,100 -600 Level Cleveland Center
02:04PM 42.2522 -83.5036 205° Southwest 222 255 11,000 -1,140 Descending Cleveland Center
02:04PM 42.2058 -83.5239 198° South 209 241 9,900 -1,380 Descending Cleveland Center
02:06PM 42.1403 -83.5544 199° South 210 242 8,200 -1,440 Descending Cleveland Center